Weather History for Setif, Algeria

Change the Weather History Date:

Sunday, June 3, 2012

  Actual Average Record
Temperature  
Mean Temperature 74 °F -  
Max Temperature 90 °F - - ()
Min Temperature 57 °F - - ()
Cooling Degree Days 8    
Growing Degree Days 24 (Base 50)    
Moisture  
Dew Point 56 °F    
Average Humidity 64    
Maximum Humidity 94    
Minimum Humidity 20    
Precipitation  
Precipitation 0.02 in - - ()
Sea Level Pressure  
Sea Level Pressure 30.11 in    
Wind  
Wind Speed 7 mph ()    
Max Wind Speed 21 mph    
Max Gust Speed -    
Visibility 7.3 miles    
Events Rain , Thunderstorm    
T = Trace of Precipitation, MM = Missing Value Source: Averaged Metar Reports

Daily Weather History Graph

Daily Weather History Graph

Search for Another Location

Airport:

Trip Planner

Search our weather history database for the weather conditions in past years. The results will help you decide how hot, cold, wet, or windy it might be!

Date:

Astronomy

Jun. 03, 2012 Rise Set
Actual Time 5:22 AM CET 7:51 PM CET
Civil Twilight 4:52 AM CET 8:21 PM CET
Nautical Twilight 4:15 AM CET 8:58 PM CET
Astronomical Twilight 3:34 AM CET 9:39 PM CET
Moon 7:00 PM CET (6/3) 4:15 AM CET (6/3)
Length of Visible Light 15h 29m
Length of Day
14h 29m
Waxing Gibbous, 98% of the Moon is Illuminated
Jun 3
Waxing Gibbous
Jun 4
Full
Jun 11
Last Quarter
Jun 19
New
Jun 27
First Quarter

Hourly Weather History & Observations

Time (CET) Temp. Heat Index Dew Point Humidity Pressure Visibility Wind Dir Wind Speed Gust Speed Precip Events Conditions
12:00 AM 64.4 °F - 57.2 °F 77% 30.12 in 6.2 mi NNE 4.6 mph - N/A   Scattered Clouds
1:00 AM 61 °F - 56 °F 80%  in 9 mi North 6.9 mph - -   Scattered Clouds
1:00 AM 60.8 °F - 57.2 °F 88% 30.12 in 6.2 mi North 6.9 mph - N/A   Mostly Cloudy
2:00 AM 59.0 °F - 55.4 °F 88% 30.12 in 6.2 mi North 4.6 mph - N/A   Mostly Cloudy
3:00 AM 60.8 °F - 53.6 °F 77% 30.09 in 6.2 mi North 4.6 mph - N/A   Mostly Cloudy
4:00 AM 58 °F - 53 °F 80%  in 9 mi NNE 4.6 mph - -   Scattered Clouds
4:00 AM 59.0 °F - 53.6 °F 82% 30.09 in 6.2 mi NNE 4.6 mph - N/A   Mostly Cloudy
5:00 AM 57.2 °F - 53.6 °F 88% 30.09 in - North 6.9 mph - N/A   Clear
6:00 AM 59.0 °F - 53.6 °F 82% 30.09 in - NNE 4.6 mph - N/A   Clear
7:00 AM 67 °F - 58 °F 66%  in 12 mi North 2.3 mph - -   Clear
7:00 AM 66.2 °F - 59.0 °F 78% 30.12 in - North 2.3 mph - N/A   Clear
8:00 AM 73.4 °F - 53.6 °F 50% 30.12 in - WNW 4.6 mph - N/A   Clear
9:00 AM 77.0 °F - 55.4 °F 47% 30.12 in - West 6.9 mph - N/A   Clear
10:00 AM 80 °F - 55 °F 31%  in 12 mi West 6.9 mph - -   Clear
10:00 AM 80.6 °F 80.5 °F 55.4 °F 42% 30.12 in - West 6.9 mph - N/A   Clear
11:00 AM 84.2 °F 83.5 °F 57.2 °F 40% 30.12 in - WSW 9.2 mph - N/A   Clear
12:00 PM 86.0 °F 84.2 °F 53.6 °F 33% 30.09 in 6.2 mi West 13.8 mph - N/A   Partly Cloudy
1:00 PM 88 °F - 53 °F 20%  in 12 mi NNE 11.5 mph - -   Partly Cloudy
1:00 PM 87.8 °F - 51.8 °F 29% 30.09 in 6.2 mi NNE 11.5 mph - N/A   Scattered Clouds
2:00 PM 87.8 °F 85.7 °F 53.6 °F 31% 30.09 in 6.2 mi WSW 13.8 mph - N/A   Scattered Clouds
3:00 PM 78.8 °F - 59.0 °F 51% 30.06 in 6.2 mi North 20.7 mph - N/A Thunderstorm Thunderstorm
4:00 PM 77 °F - 57 °F 39%  in 12 mi North 18.4 mph - - Thunderstorm Thunderstorm
4:00 PM 77.0 °F - 57.2 °F 50% 30.06 in 6.2 mi North 18.4 mph - N/A Thunderstorm Thunderstorm
5:00 PM 75.2 °F - 55.4 °F 50% 30.09 in 6.2 mi North 13.8 mph - N/A Thunderstorm Thunderstorm
6:00 PM 71.6 °F - 55.4 °F 57% 30.09 in 6.2 mi NNW 15.0 mph - N/A Thunderstorm Thunderstorm
7:00 PM 68 °F - 60 °F 67%  in 6 mi WNW 16.1 mph - - Rain , Thunderstorm Thunderstorms and Rain
7:00 PM 68.0 °F - 59.0 °F 73% 30.18 in 6.2 mi WNW 16.1 mph - N/A Rain , Thunderstorm Light Thunderstorms and Rain
8:00 PM 62.6 °F - 59.0 °F 88% 30.15 in 6.2 mi NE 8.1 mph - N/A Thunderstorm Thunderstorm
9:00 PM 62.6 °F - 60.8 °F 94% 30.15 in 6.2 mi East 2.3 mph - N/A Rain , Thunderstorm Light Thunderstorms and Rain
10:00 PM 62 °F - 60 °F 89%  in 6 mi ESE 3.5 mph - - Thunderstorm Light Thunderstorm
10:00 PM 62.6 °F - 59.0 °F 88% 30.15 in 6.2 mi ESE 3.5 mph - N/A   Scattered Clouds
11:00 PM 60.8 °F - 59.0 °F 94% 30.12 in 6.2 mi East 8.1 mph - N/A   Partly Cloudy